TimeEST,TemperatureF,Dew PointF,Humidity,Sea Level PressureIn,VisibilityMPH,Wind Direction,Wind SpeedMPH,Gust SpeedMPH,PrecipitationIn,Events,Conditions,WindDirDegrees,DateUTC
12:15 AM,64.4,53.6,68,29.97,10.0,South,6.9,-,N/A,,Scattered Clouds,170,2013-01-30 05:15:00
12:35 AM,64.4,53.6,68,29.97,10.0,South,8.1,-,N/A,,Scattered Clouds,170,2013-01-30 05:35:00
12:55 AM,62.6,51.8,68,29.95,10.0,SE,5.8,-,N/A,,Clear,140,2013-01-30 05:55:00
1:15 AM,62.6,51.8,68,29.94,10.0,ESE,5.8,-,N/A,,Mostly Cloudy,120,2013-01-30 06:15:00
1:35 AM,62.6,51.8,68,29.93,10.0,SE,4.6,-,N/A,,Overcast,140,2013-01-30 06:35:00
1:55 AM,62.6,51.8,68,29.92,10.0,SSE,3.5,-,N/A,,Overcast,150,2013-01-30 06:55:00
2:15 AM,62.6,51.8,68,29.91,10.0,SE,4.6,-,N/A,,Overcast,130,2013-01-30 07:15:00
2:55 AM,64.4,53.6,68,29.89,10.0,SSE,4.6,-,N/A,,Overcast,160,2013-01-30 07:55:00
3:15 AM,64.4,53.6,68,29.88,10.0,South,6.9,-,N/A,,Overcast,180,2013-01-30 08:15:00
3:35 AM,64.4,53.6,68,29.88,10.0,South,10.4,-,N/A,,Overcast,190,2013-01-30 08:35:00
3:55 AM,64.4,53.6,68,29.87,10.0,South,10.4,18.4,N/A,,Overcast,190,2013-01-30 08:55:00
4:15 AM,64.4,55.4,73,29.87,10.0,South,10.4,18.4,N/A,,Overcast,180,2013-01-30 09:15:00
4:55 AM,64.4,55.4,73,29.85,10.0,South,13.8,19.6,N/A,Rain,Light Rain,180,2013-01-30 09:55:00
5:15 AM,64.4,57.2,77,29.82,5.0,South,9.2,-,N/A,Rain,Rain,180,2013-01-30 10:15:00
5:35 AM,64.4,59.0,83,29.82,4.0,South,10.4,-,N/A,Rain,Heavy Rain,180,2013-01-30 10:35:00
5:55 AM,64.4,59.0,83,29.82,4.0,South,10.4,19.6,N/A,Rain,Light Rain,180,2013-01-30 10:55:00
6:15 AM,64.4,59.0,83,29.80,7.0,South,10.4,16.1,N/A,Rain,Rain,170,2013-01-30 11:15:00
6:35 AM,64.4,59.0,83,29.80,7.0,South,10.4,18.4,N/A,Rain,Light Rain,180,2013-01-30 11:35:00
6:55 AM,64.4,59.0,83,29.80,7.0,South,8.1,17.3,N/A,Rain,Light Rain,190,2013-01-30 11:55:00
7:15 AM,64.4,59.0,83,29.78,10.0,South,12.7,19.6,N/A,Rain,Light Rain,180,2013-01-30 12:15:00
7:35 AM,64.4,59.0,83,29.77,10.0,South,10.4,21.9,N/A,,Overcast,170,2013-01-30 12:35:00
7:55 AM,64.4,59.0,83,29.78,7.0,South,13.8,20.7,N/A,Rain,Light Rain,180,2013-01-30 12:55:00
8:15 AM,64.4,59.0,83,29.78,10.0,South,13.8,20.7,N/A,Rain,Light Rain,190,2013-01-30 13:15:00
8:35 AM,64.4,59.0,83,29.77,7.0,South,13.8,20.7,N/A,Rain,Light Rain,180,2013-01-30 13:35:00
8:55 AM,64.4,59.0,83,29.77,5.0,South,9.2,17.3,N/A,Rain,Light Rain,190,2013-01-30 13:55:00
9:15 AM,66.2,60.8,83,29.75,10.0,South,11.5,19.6,N/A,,Overcast,180,2013-01-30 14:15:00
9:35 AM,66.2,59.0,78,29.75,10.0,SSE,11.5,20.7,N/A,,Overcast,160,2013-01-30 14:35:00
9:55 AM,66.2,59.0,78,29.75,10.0,South,10.4,17.3,N/A,Rain,Light Rain,190,2013-01-30 14:55:00
10:15 AM,68.0,59.0,73,29.74,10.0,South,11.5,23.0,N/A,Rain,Light Rain,180,2013-01-30 15:15:00
10:35 AM,68.0,59.0,73,29.73,10.0,South,11.5,18.4,N/A,Rain,Light Rain,180,2013-01-30 15:35:00
10:55 AM,66.2,59.0,78,29.72,4.0,South,15.0,24.2,N/A,Rain,Light Rain,190,2013-01-30 15:55:00
11:15 AM,66.2,59.0,78,29.71,7.0,South,12.7,25.3,N/A,Rain,Light Rain,180,2013-01-30 16:15:00
11:35 AM,68.0,59.0,73,29.68,10.0,South,16.1,27.6,N/A,,Overcast,170,2013-01-30 16:35:00
11:55 AM,68.0,59.0,73,29.68,10.0,South,16.1,28.8,N/A,,Overcast,170,2013-01-30 16:55:00
12:15 PM,68.0,59.0,73,29.67,7.0,South,18.4,28.8,N/A,Rain,Rain,180,2013-01-30 17:15:00
12:35 PM,66.2,59.0,78,29.67,4.0,SSW,12.7,27.6,N/A,Rain,Heavy Rain,210,2013-01-30 17:35:00
12:55 PM,66.2,59.0,78,29.65,5.0,SSW,11.5,19.6,N/A,Rain,Rain,200,2013-01-30 17:55:00
1:15 PM,64.4,59.0,83,29.65,1.5,West,9.2,-,N/A,Rain,Heavy Rain,280,2013-01-30 18:15:00
1:35 PM,60.8,55.4,82,29.65,0.5,West,9.2,23.0,N/A,Rain,Heavy Rain,270,2013-01-30 18:35:00
2:15 PM,60.8,55.4,82,29.61,2.5,SSW,9.2,-,N/A,Rain,Heavy Rain,210,2013-01-30 19:15:00
2:35 PM,60.8,55.4,82,29.60,2.0,West,3.5,-,N/A,Rain,Heavy Rain,260,2013-01-30 19:35:00
2:55 PM,59.0,55.4,88,29.60,2.5,Calm,Calm,-,N/A,Rain,Heavy Rain,0,2013-01-30 19:55:00
3:15 PM,59.0,55.4,88,29.58,2.0,Calm,Calm,-,N/A,Rain,Heavy Rain,0,2013-01-30 20:15:00
3:55 PM,59.0,53.6,82,29.60,3.0,West,9.2,20.7,N/A,Rain,Rain,260,2013-01-30 20:55:00
4:15 PM,59.0,53.6,82,29.60,3.0,WNW,8.1,-,N/A,Rain,Rain,290,2013-01-30 21:15:00
4:35 PM,55.4,51.8,88,29.60,1.8,WNW,15.0,25.3,N/A,Rain,Rain,290,2013-01-30 21:35:00
5:15 PM,50.0,44.6,82,29.65,5.0,WNW,11.5,20.7,N/A,Rain,Rain,300,2013-01-30 22:15:00
5:35 PM,50.0,44.6,82,29.66,7.0,WNW,6.9,-,N/A,Rain,Rain,290,2013-01-30 22:35:00
5:55 PM,48.2,42.8,82,29.64,7.0,WNW,5.8,-,N/A,Rain,Rain,300,2013-01-30 22:55:00
6:15 PM,48.2,42.8,82,29.63,4.0,NW,3.5,-,N/A,Rain,Rain,310,2013-01-30 23:15:00
6:35 PM,46.4,42.8,87,29.63,4.0,Calm,Calm,-,N/A,Rain,Rain,0,2013-01-30 23:35:00
6:55 PM,46.4,42.8,87,29.66,7.0,Calm,Calm,-,N/A,Rain,Rain,0,2013-01-30 23:55:00
7:15 PM,46.4,42.8,87,29.65,10.0,SSW,4.6,-,N/A,,Mostly Cloudy,200,2013-01-31 00:15:00
7:55 PM,46.4,42.8,87,29.65,5.0,Calm,Calm,-,N/A,Rain,Light Rain,0,2013-01-31 00:55:00
8:15 PM,46.4,42.8,87,29.67,10.0,SW,8.1,-,N/A,Rain,Light Rain,230,2013-01-31 01:15:00
8:35 PM,46.4,42.8,87,29.66,10.0,WSW,9.2,17.3,N/A,,Overcast,250,2013-01-31 01:35:00
8:55 PM,46.4,41.0,81,29.65,10.0,WSW,6.9,-,N/A,,Overcast,240,2013-01-31 01:55:00
9:15 PM,46.4,41.0,81,29.66,10.0,WSW,10.4,17.3,N/A,,Overcast,240,2013-01-31 02:15:00
9:35 PM,46.4,41.0,81,29.66,10.0,WNW,9.2,-,N/A,Rain,Light Rain,290,2013-01-31 02:35:00
9:55 PM,46.4,41.0,81,29.68,10.0,West,11.5,17.3,N/A,,Overcast,280,2013-01-31 02:55:00
10:15 PM,44.6,37.4,76,29.70,7.0,West,10.4,25.3,N/A,Rain,Light Rain,270,2013-01-31 03:15:00
10:55 PM,42.8,35.6,76,29.74,10.0,WNW,10.4,24.2,N/A,,Overcast,290,2013-01-31 03:55:00
11:15 PM,42.8,33.8,70,29.76,10.0,WNW,16.1,23.0,N/A,,Overcast,300,2013-01-31 04:15:00
11:35 PM,41.0,32.0,70,29.77,10.0,WNW,11.5,33.4,N/A,,Overcast,290,2013-01-31 04:35:00